Theta_e
313 311 309 309 309 310 310 311 313 313 312 310 309 308 307 308 307 306 306 307 307 306 306 306 305 305 305 306 306 306 306 307 309 311 314 310 303 302 302 301 300 300 300 299 300 300 300 300 300 300 300 301 301 300 300 300 300 300 300 299 299 299 300 300 300 300 300 300 300 299 299 298 300 301 302 306 307 306 306 306 307 307 306 305 305 305 305 304 304 304 303 304 303 302 298 297 297
311 309 308 309 309 309 311 313 314 312 311 309 308 307 307 308 307 307 307 307 307 306 306 305 305 304 305 305 305 307 305 304 307 308 308 305 302 302 301 300 300 300 300 300 300 300 300 300 300 300 300 301 300 300 300 300 300 300 300 299 299 299 299 300 299 300 299 299 299 299 299 298 299 300 299 302 304 304 305 306 306 306 305 304 304 304 304 302 300 300 299 300 299 298 297 297 297
308 308 308 308 309 310 312 314 314 311 310 309 308 306 307 308 307 307 307 307 306 305 305 305 305 304 305 306 306 306 305 304 305 305 303 302 302 301 301 300 300 300 300 300 300 300 300 300 300 300 300 300 300 300 300 300 300 300 300 300 299 300 299 299 299 299 299 299 299 299 299 299 298 299 298 299 301 303 304 304 304 305 304 303 302 302 301 299 297 297 297 297 297 297 297 297 297
307 307 308 309 310 312 315 316 314 311 309 308 307 307 308 308 307 307 306 306 305 305 305 305 305 304 304 306 305 305 305 304 305 304 302 304 304 301 300 300 300 300 300 300 300 300 301 300 300 300 300 300 300 300 300 300 300 300 300 300 299 300 299 299 299 299 299 299 299 299 299 299 299 299 298 298 299 300 302 301 302 302 301 300 299 298 298 297 297 297 297 297 297 297 297 297 297
307 308 309 310 311 314 316 315 313 310 309 308 307 308 308 307 307 306 305 305 304 304 305 305 305 304 304 305 305 306 306 303 303 304 303 303 303 301 300 300 300 300 300 300 300 301 300 300 300 300 300 300 300 300 300 300 300 300 300 300 300 299 300 299 299 299 299 299 299 299 299 299 298 299 299 298 299 299 299 299 299 299 298 298 298 298 297 297 297 297 297 297 297 297 297 297 297
308 309 310 311 312 313 315 313 310 309 308 309 308 308 308 306 306 306 305 305 304 304 304 304 305 305 305 305 305 306 306 305 303 304 303 301 301 301 301 301 300 301 300 301 301 301 301 301 300 300 301 300 301 300 300 300 300 300 300 300 299 299 299 299 299 299 299 299 299 299 299 299 299 299 299 299 299 299 298 299 298 298 298 298 298 298 298 298 298 298 297 297 297 297 297 297 297
309 309 311 314 314 313 313 311 309 308 308 308 308 307 306 306 306 305 304 305 304 304 304 304 305 304 306 306 304 304 305 306 303 302 303 302 301 301 301 301 301 301 301 301 301 301 301 301 301 301 301 300 300 301 300 300 300 300 300 300 299 299 299 299 299 299 299 299 299 299 299 299 299 299 299 299 299 299 299 299 299 299 298 298 298 298 298 298 298 298 298 298 298 298 298 297 297
309 310 312 316 315 314 311 309 308 308 307 307 307 307 306 306 306 305 305 305 304 305 304 304 304 304 306 306 305 305 304 305 303 302 302 301 301 301 301 301 301 301 301 301 301 301 301 301 301 301 301 301 301 300 300 300 300 300 300 300 299 299 299 299 299 299 299 299 299 298 299 299 299 299 299 299 299 299 299 299 299 299 299 299 299 298 298 298 298 298 298 298 298 298 298 298 298
309 311 314 316 314 312 309 308 307 307 307 307 307 306 306 305 306 306 306 306 305 305 305 304 304 305 305 305 307 306 303 303 302 302 301 301 301 301 301 301 301 301 301 301 301 301 301 301 301 301 301 301 300 300 300 300 300 300 300 300 299 299 299 299 299 299 299 299 299 299 299 299 299 299 299 299 299 299 299 299 299 299 299 299 299 299 299 299 299 299 299 299 299 299 299 299 299
310 312 315 315 312 310 309 308 307 306 306 306 306 306 305 305 306 306 306 305 305 305 305 304 304 305 305 305 306 305 303 302 302 302 301 301 301 301 301 301 301 301 301 301 301 301 301 301 301 301 301 300 301 300 300 300 300 300 300 300 300 300 299 299 299 299 299 299 299 299 299 299 299 299 299 299 299 299 299 299 299 299 299 299 299 299 299 299 299 299 299 299 299 299 300 300 300
311 313 316 315 312 311 310 309 308 307 306 305 306 306 305 305 305 306 306 306 305 305 305 304 304 304 305 305 306 306 304 302 302 302 301 302 302 302 301 301 301 301 301 301 301 301 301 301 301 301 301 300 300 300 300 300 300 300 300 300 300 300 300 300 300 299 299 299 299 299 299 299 299 299 299 299 299 299 299 299 299 299 299 299 299 299 299 299 299 300 300 300 300 300 300 300 300
314 316 317 317 314 312 310 308 307 306 306 306 305 305 305 305 305 305 306 306 305 305 305 304 305 305 305 305 306 306 305 303 302 302 301 302 302 302 302 302 301 301 301 301 301 301 301 301 301 301 301 301 300 300 300 300 300 300 300 300 300 300 300 300 299 299 299 299 299 299 299 299 299 299 299 299 299 299 299 299 299 299 299 299 299 299 300 299 300 300 300 300 300 300 300 300 300
314 318 319 316 313 311 309 308 307 307 306 306 305 305 305 305 305 305 305 306 305 306 306 305 305 305 305 306 306 306 305 303 302 302 302 302 302 302 302 302 301 302 301 301 301 301 301 301 301 301 301 300 301 300 300 300 300 300 300 300 300 300 300 300 300 300 299 299 299 299 299 299 299 299 299 300 300 300 300 300 300 300 300 300 299 300 300 300 300 300 300 300 300 300 300 300 301
314 316 317 315 313 311 310 309 308 308 308 307 306 305 305 305 305 306 306 306 306 306 306 305 304 304 305 306 306 306 305 303 302 302 302 301 302 302 302 302 302 302 302 301 301 301 301 301 301 301 301 301 300 300 300 300 300 300 300 300 300 300 300 300 300 300 300 300 300 299 299 299 299 300 300 300 300 300 300 300 300 300 300 300 300 300 300 300 300 300 300 300 300 300 301 301 301
313 314 316 316 313 311 311 310 309 310 308 306 306 305 305 305 305 305 305 306 307 306 306 305 303 304 306 306 306 306 305 304 302 302 302 302 302 302 302 302 302 302 302 302 301 301 301 301 301 301 301 301 300 300 300 300 300 300 300 300 300 300 300 300 300 300 300 300 300 300 300 300 300 300 300 300 300 300 300 300 300 300 300 300 300 300 300 300 300 300 300 300 301 301 301 301 301
313 315 318 316 313 312 313 311 311 312 308 306 306 304 305 305 305 304 305 305 306 306 305 305 304 304 306 306 306 305 305 304 302 302 302 302 302 302 302 302 302 302 302 302 302 301 301 301 301 301 301 301 301 301 300 300 300 300 300 300 300 300 300 300 300 300 300 300 300 300 300 300 300 300 300 300 300 300 300 300 300 301 301 301 301 300 300 300 301 301 301 301 301 301 301 301 301
312 317 318 315 313 313 313 312 312 311 308 306 305 304 305 305 304 304 304 304 305 306 305 305 304 304 305 305 305 305 305 304 303 302 302 302 302 302 302 302 302 302 302 302 302 302 301 301 301 301 301 301 301 300 300 300 300 300 300 300 300 300 300 300 300 300 300 300 300 300 300 300 300 300 300 300 300 300 300 300 301 301 301 301 301 301 301 301 301 301 301 301 301 301 301 301 301
314 320 319 315 314 312 311 311 310 309 307 305 305 305 306 306 305 304 304 304 304 304 304 305 304 304 304 304 304 305 305 304 303 302 302 302 302 302 303 303 303 303 303 302 302 302 302 302 301 301 301 301 301 301 300 300 300 300 300 300 300 300 300 300 300 300 300 300 300 300 300 300 300 300 300 300 300 300 300 300 301 301 301 301 301 301 302 301 301 301 301 301 301 301 302 302 302
314 319 319 314 312 309 308 309 308 309 307 305 305 305 306 306 305 304 304 304 304 304 304 304 305 305 304 303 303 304 304 304 302 302 302 302 302 303 303 303 303 303 302 303 302 302 302 302 302 301 301 301 301 301 300 300 300 300 300 300 300 300 300 300 300 300 300 300 300 300 300 300 300 300 300 300 300 300 300 301 301 301 301 301 302 302 302 302 302 302 302 302 302 302 302 302 302
312 314 316 311 308 307 307 308 308 308 307 305 305 305 306 306 306 305 304 305 305 304 305 305 305 305 304 304 303 303 303 303 302 302 302 302 302 303 303 303 303 303 303 303 302 302 302 302 302 302 301 301 301 301 301 300 300 300 300 300 300 300 300 300 300 300 300 300 300 301 300 301 300 300 300 301 301 301 301 301 301 301 301 301 302 302 302 302 302 302 302 302 302 302 302 302 302
310 310 311 309 308 307 306 307 307 307 307 306 306 305 305 306 306 305 305 305 305 305 306 306 306 306 305 305 304 304 303 303 303 303 302 302 303 303 302 303 303 303 303 303 303 302 302 302 302 301 301 301 301 301 301 301 300 300 300 300 300 300 300 300 300 300 301 301 301 301 301 301 301 301 301 301 301 301 301 301 301 302 302 302 302 302 302 303 302 302 302 302 302 302 302 301 302
308 307 308 308 308 306 305 306 306 306 307 306 306 305 305 306 306 305 305 305 306 307 307 307 307 307 307 306 306 305 304 304 303 303 303 303 303 303 303 302 302 303 304 304 304 303 303 302 302 301 302 301 301 301 301 301 300 300 300 300 300 300 301 301 301 301 301 301 301 301 301 301 301 301 301 301 301 301 302 302 302 302 302 302 302 303 303 302 302 302 302 302 302 301 301 301 301
307 306 306 307 307 306 305 305 305 306 306 306 305 305 306 306 305 305 305 305 306 307 308 307 307 307 307 307 306 306 306 305 304 304 304 303 303 303 303 303 302 302 304 304 304 304 302 302 302 302 301 301 301 301 301 301 301 301 300 300 301 300 301 301 301 301 301 301 301 301 301 301 301 302 302 302 302 302 302 302 302 302 302 302 302 303 303 302 302 302 302 302 302 301 301 301 301
308 306 306 306 305 305 305 304 304 305 306 306 305 305 305 305 306 306 306 306 306 307 307 307 307 307 307 307 307 306 306 306 305 304 304 304 304 303 303 303 303 302 303 303 303 303 302 301 302 302 301 301 301 301 301 301 301 301 301 301 301 301 301 301 301 301 301 302 302 302 302 302 302 302 302 302 303 303 303 303 303 303 303 303 303 302 302 302 302 302 302 302 301 301 301 301 301
307 306 306 305 305 304 304 304 304 304 305 305 305 305 305 305 305 305 306 306 306 306 307 306 306 306 306 306 306 306 306 306 306 305 304 304 304 304 303 303 303 303 303 303 302 302 302 302 302 301 302 301 301 301 301 301 301 301 301 301 301 301 301 301 301 301 301 302 302 302 302 302 302 302 303 303 303 303 303 303 303 303 303 303 303 302 302 302 302 302 302 302 301 301 301 301 301
307 306 306 305 305 304 304 304 304 303 304 304 304 304 305 305 305 305 306 307 307 306 306 306 306 306 306 306 305 305 306 306 306 305 305 304 304 304 303 303 303 303 303 302 303 303 302 302 302 302 301 301 302 301 302 302 301 301 301 301 301 301 301 301 301 301 302 302 302 302 302 302 302 302 303 303 303 303 303 303 303 303 303 303 302 302 302 302 302 301 301 301 301 301 301 301 301
306 306 305 305 304 304 304 304 304 303 304 304 304 304 305 305 305 306 307 308 308 307 306 305 306 306 305 305 305 305 305 305 305 305 304 304 304 304 303 303 303 303 303 302 303 302 302 302 302 302 302 302 302 302 302 302 301 301 301 301 301 301 301 301 301 302 302 302 302 302 302 302 302 302 302 302 302 303 303 303 303 303 303 302 302 302 301 301 301 301 301 301 301 301 301 301 301
306 305 305 305 305 304 304 305 304 304 305 304 304 304 305 305 305 307 308 308 308 307 307 306 306 306 306 305 305 305 304 304 304 304 304 304 304 304 303 303 303 303 303 303 303 302 302 302 302 302 302 302 302 302 302 302 302 301 301 301 301 301 301 301 302 302 302 302 302 302 302 302 302 302 302 301 302 302 302 302 302 302 302 302 302 301 301 301 301 301 301 301 301 302 302 302 302
305 306 306 305 305 305 304 305 305 304 306 305 305 306 308 306 306 310 310 308 308 307 307 306 306 306 305 305 305 305 305 304 304 304 304 304 304 304 304 304 304 303 303 303 303 302 302 302 302 302 302 302 302 302 302 302 302 301 301 301 301 301 301 302 302 302 302 302 302 302 302 302 302 301 301 301 301 302 302 302 302 301 301 302 301 301 301 301 301 301 301 301 302 302 302 302 302
306 307 308 307 307 307 305 306 305 304 306 305 305 311 314 310 309 312 311 309 308 307 306 306 306 306 306 306 305 305 305 305 305 305 305 305 304 304 304 304 304 303 303 303 303 303 302 302 302 302 302 302 302 302 302 302 302 302 302 301 301 301 302 302 302 302 302 302 303 302 302 302 302 302 302 302 302 302 302 302 301 301 301 301 301 301 301 301 301 302 302 302 302 302 302 302 303
307 308 309 311 311 309 306 306 306 305 306 305 306 311 312 311 312 312 311 309 308 307 307 307 306 306 306 306 306 305 305 305 305 305 305 305 304 304 304 304 304 303 303 303 303 303 302 302 302 302 302 302 302 302 302 302 302 302 302 302 302 302 302 302 302 302 303 302 303 302 302 302 302 302 302 302 302 302 302 302 302 301 301 302 301 301 301 302 302 302 302 302 302 302 302 302 303
309 310 313 315 314 312 308 306 306 306 307 306 307 311 311 311 312 312 310 309 309 308 307 307 306 306 306 306 306 306 306 306 306 306 306 305 305 304 304 304 303 303 303 303 303 303 303 303 302 302 302 302 302 302 302 302 302 302 302 302 302 302 302 302 303 303 303 303 303 302 303 302 302 302 303 302 302 302 302 302 302 302 302 302 301 302 302 302 303 303 302 302 302 302 302 303 303
311 312 316 316 315 314 310 307 306 306 307 306 307 310 310 310 311 311 310 310 309 308 307 307 307 307 308 307 307 307 307 307 307 308 307 307 306 305 304 304 304 303 303 303 303 303 303 303 303 303 303 302 302 303 303 302 302 302 302 302 302 302 303 303 303 303 303 303 303 303 303 303 303 303 303 303 303 303 303 303 302 302 302 302 302 302 303 303 304 303 303 302 302 302 303 303 303
316 315 317 316 314 314 312 310 307 306 307 307 308 308 308 309 310 310 310 310 309 308 308 308 308 308 309 309 308 308 307 307 308 308 308 308 308 307 306 305 304 303 303 303 303 303 303 303 303 303 303 303 303 303 303 303 303 303 303 303 303 303 303 303 303 303 303 303 303 303 303 303 303 303 303 303 303 303 303 303 303 302 302 302 302 303 303 304 304 303 303 302 302 303 303 303 303
315 315 316 315 313 313 313 312 308 306 307 308 308 308 308 309 309 310 311 311 309 308 309 309 309 309 309 309 309 308 308 308 308 308 308 308 308 308 307 306 305 304 304 303 303 303 303 303 303 303 303 303 303 303 303 303 303 303 303 303 303 304 304 304 304 304 304 304 304 303 303 304 304 303 303 303 303 303 304 304 303 303 303 302 303 303 304 304 304 303 303 302 303 303 303 303 304
312 313 313 313 313 313 313 310 306 306 308 309 309 309 309 310 311 311 312 312 310 309 310 309 310 310 310 310 310 309 309 309 309 308 308 308 308 308 308 307 306 305 304 304 304 303 303 303 303 304 304 304 304 304 304 305 304 304 304 304 304 305 305 304 304 304 304 304 304 304 304 304 304 304 304 304 304 304 305 305 304 304 303 303 303 304 304 304 304 303 303 303 303 303 303 303 305
311 312 313 314 315 314 312 310 306 306 309 311 310 311 310 311 311 311 312 313 311 309 309 310 310 310 310 310 310 310 309 309 309 309 308 308 308 308 308 308 307 306 305 304 304 304 304 304 304 305 305 305 305 305 305 305 305 305 305 305 305 305 305 305 305 305 305 304 304 304 304 304 304 304 304 304 304 305 305 305 305 305 304 304 304 304 304 304 304 303 303 303 303 303 303 304 304
312 313 314 315 316 314 312 311 307 306 309 310 310 311 311 310 311 311 313 314 313 311 311 311 311 311 311 311 310 310 310 309 309 309 309 308 308 308 308 308 307 307 306 305 305 305 304 304 305 305 305 306 306 306 306 306 306 306 305 305 305 305 305 305 305 305 305 305 304 304 304 304 304 305 305 305 305 305 306 305 305 305 305 305 304 305 304 304 303 303 303 303 303 303 303 303 304
313 315 316 316 315 313 311 310 309 307 309 310 311 311 309 310 312 313 314 315 314 314 313 313 313 312 312 311 310 310 310 310 310 309 309 309 308 308 308 308 308 307 306 306 306 305 305 305 306 306 306 306 306 306 306 306 306 306 305 305 305 305 305 305 305 305 305 305 305 305 305 305 305 305 305 305 306 306 306 306 306 306 305 305 305 305 304 304 304 304 303 303 303 304 304 303 303
315 316 315 316 314 312 310 311 310 309 310 311 311 310 310 313 317 316 315 314 314 314 314 313 313 312 312 312 311 311 311 311 310 310 310 309 309 309 309 309 308 308 307 307 307 306 307 306 307 306 306 306 306 306 306 306 306 306 306 306 305 305 305 305 305 305 306 306 306 305 305 305 305 305 306 306 307 306 306 306 306 306 306 305 305 304 304 304 304 303 303 303 304 304 304 303 302
319 319 315 315 313 310 310 310 310 310 311 311 312 314 317 319 319 318 316 314 314 315 314 314 313 312 312 312 312 312 312 312 311 311 310 310 310 309 309 309 308 308 308 308 308 308 308 307 307 307 307 307 307 307 307 306 306 307 306 306 306 306 305 305 305 306 306 306 306 306 305 306 306 306 307 307 307 306 306 306 306 306 305 305 304 304 304 304 303 303 303 304 304 304 304 304 302
317 316 314 312 311 309 310 311 312 313 314 313 314 318 321 320 317 318 318 317 317 316 315 315 315 314 313 312 312 312 311 311 311 311 311 310 310 310 309 309 309 309 309 309 309 309 308 308 308 308 308 308 308 308 308 307 307 307 307 307 307 306 306 306 306 306 306 306 306 307 307 307 307 308 308 308 307 306 306 306 306 306 305 305 304 304 304 304 303 303 304 304 304 304 303 303 302
314 313 311 310 309 311 312 312 313 315 315 313 314 317 319 319 318 318 320 320 320 318 316 316 315 315 315 314 313 312 311 311 310 311 311 311 310 310 310 309 309 310 310 310 309 309 309 308 308 308 308 309 309 309 309 309 308 308 308 308 307 307 307 307 307 307 307 308 308 308 309 309 309 308 308 308 307 307 306 306 305 305 305 304 304 303 303 303 303 303 304 304 304 303 303 303 302
315 312 309 309 310 311 312 313 313 315 315 315 316 315 315 318 320 319 320 320 318 317 316 316 315 315 315 314 314 313 312 312 311 311 311 311 310 310 310 310 310 310 310 310 310 309 309 308 309 309 309 309 310 309 309 309 309 309 309 309 308 308 308 308 308 308 309 310 310 310 310 310 309 309 309 308 307 307 306 306 305 305 305 304 303 303 303 303 303 304 304 304 303 303 303 302 302
315 308 307 309 309 310 311 312 314 315 315 317 318 316 315 320 322 319 320 319 315 316 316 315 316 316 316 315 314 313 313 313 312 311 311 311 310 310 309 310 310 310 311 310 311 310 310 309 309 310 310 310 310 309 310 309 309 310 310 310 309 309 308 308 308 309 310 310 310 310 310 310 310 309 309 308 307 306 306 306 305 305 304 303 303 303 303 303 304 304 304 303 303 303 302 302 302
311 305 307 308 308 310 311 312 315 315 316 318 317 315 315 318 320 318 318 318 314 314 315 314 314 315 315 314 313 313 312 312 311 311 311 311 310 310 309 310 310 311 312 312 311 311 310 310 310 310 310 310 310 310 310 310 310 310 310 310 310 310 309 309 310 310 310 310 310 310 310 310 310 309 309 308 307 306 306 306 305 304 304 303 303 303 303 304 304 304 304 303 303 303 302 302 302
308 309 313 313 311 312 312 313 314 316 319 318 313 313 312 313 323 322 314 314 314 314 314 313 314 313 313 313 312 312 311 311 311 311 311 311 310 310 309 309 309 310 312 312 312 312 311 311 311 311 310 310 310 310 310 310 310 310 310 310 310 310 310 310 311 311 311 310 310 310 310 310 310 310 309 308 307 306 306 305 305 304 303 303 303 303 303 304 304 304 303 303 303 303 302 302 302
309 313 317 319 317 314 314 315 315 315 319 316 311 312 311 312 325 324 312 313 314 313 314 314 313 312 311 312 311 311 310 311 311 311 312 312 311 310 309 309 309 309 310 311 311 311 311 311 311 311 310 310 310 310 310 309 310 310 310 311 311 311 311 311 311 311 310 310 310 310 310 310 310 310 309 308 307 306 306 305 304 304 303 303 302 302 303 304 304 303 303 303 303 302 302 302 301
312 316 316 318 318 315 314 316 315 315 317 315 310 310 312 313 317 316 312 314 314 312 313 313 312 311 311 311 311 311 311 310 311 311 311 311 312 312 311 310 309 309 309 310 310 310 310 310 310 311 311 311 310 310 310 309 309 310 310 311 311 311 311 311 311 311 310 310 310 310 310 310 310 309 309 308 307 306 305 305 304 303 303 303 302 302 304 304 304 303 303 303 303 302 302 301 301
315 317 317 317 315 311 312 314 314 315 317 315 309 310 315 316 315 314 314 314 313 312 312 312 311 311 311 312 311 311 311 310 311 311 311 311 311 311 311 312 311 310 309 309 309 309 309 309 309 309 310 310 310 310 310 310 309 309 309 310 310 311 311 311 311 311 311 310 310 310 310 310 310 309 309 308 307 305 305 304 304 303 303 302 302 303 304 304 304 303 303 303 302 302 301 301 301
312 313 314 315 313 311 313 315 316 316 318 317 311 312 316 315 315 316 314 313 313 313 313 312 312 313 313 312 311 311 311 310 310 310 310 310 310 310 310 311 311 311 311 310 310 309 309 309 309 308 309 309 309 310 310 310 310 309 309 309 309 309 310 311 311 311 311 310 310 310 310 310 309 309 308 308 307 305 304 304 303 303 303 302 302 303 304 304 303 303 303 302 302 302 301 301 301
311 310 314 316 314 315 315 315 314 313 316 320 317 317 318 315 316 316 313 313 313 313 314 313 313 314 314 313 312 311 311 310 310 309 309 309 309 310 310 310 310 310 310 311 311 310 310 310 309 309 309 308 308 308 309 309 309 309 309 309 309 309 309 310 310 311 311 310 310 310 310 309 309 309 308 307 306 305 304 303 303 303 302 301 302 303 304 303 303 303 302 302 302 301 301 300 300
311 310 314 313 309 313 317 314 312 311 315 320 317 316 318 316 316 316 314 315 314 313 315 314 313 315 314 313 312 311 311 309 308 308 308 308 308 308 309 309 309 309 309 310 310 310 311 311 311 310 309 309 308 308 308 308 308 309 309 309 309 309 308 308 309 310 310 310 310 310 310 309 309 308 308 307 306 304 303 303 303 303 302 301 302 303 303 303 303 303 302 302 301 301 300 300 300
310 312 312 309 307 310 314 314 314 315 317 317 313 312 314 313 314 316 315 315 315 315 315 314 314 314 313 313 311 311 311 308 307 308 307 307 307 307 308 308 308 309 309 309 309 309 310 310 311 311 311 310 309 308 308 308 308 308 308 308 308 308 309 308 308 308 309 310 310 310 309 309 309 308 308 307 305 304 303 302 302 302 301 301 302 303 303 303 302 302 302 301 301 301 300 299 299
306 309 307 309 313 314 314 313 314 315 314 315 315 314 313 313 314 315 313 314 315 315 315 314 314 314 313 312 311 311 310 308 307 307 307 307 307 307 307 307 307 308 308 309 309 309 309 309 310 310 310 310 310 309 309 308 307 307 307 307 307 308 308 308 308 307 308 309 310 310 309 309 308 308 307 306 305 303 303 302 302 302 301 301 302 303 302 302 302 302 301 301 301 300 299 298 298
302 305 305 308 312 314 315 313 313 314 313 315 318 317 317 318 318 313 312 315 315 316 317 315 314 313 312 311 311 310 309 308 307 307 307 307 307 306 306 307 307 307 308 308 308 309 309 309 309 309 309 310 310 310 310 309 309 307 307 307 306 307 307 308 308 307 307 307 309 309 309 308 308 308 307 306 304 303 303 302 302 302 301 301 302 302 302 302 301 301 301 300 300 299 298 297 297
307 309 310 308 309 311 311 311 312 314 313 313 315 318 320 320 316 313 313 317 317 316 316 315 313 312 311 311 311 310 309 308 308 308 308 308 307 307 307 306 306 306 307 307 307 308 309 309 309 309 309 309 309 309 309 309 309 308 307 306 306 306 306 307 307 307 306 306 307 308 308 308 308 307 307 306 304 303 303 302 302 302 300 300 301 302 302 301 301 301 300 299 299 298 297 296 295
310 312 313 312 313 313 312 312 312 312 312 312 313 316 319 317 314 315 314 314 316 314 312 313 312 311 311 311 311 310 309 308 309 308 308 308 307 307 307 307 307 307 306 306 307 307 307 308 308 308 309 309 309 309 309 309 308 308 307 306 305 305 306 306 306 306 306 306 306 306 307 308 307 307 306 306 305 304 303 303 302 301 300 300 301 301 301 301 300 299 299 298 297 296 296 295 294
Wind_Speed
2 4 5 6 6 6 2 5 3 5 3 6 3 3 4 4 6 5 5 4 3 5 6 5 5 6 4 1 2 4 5 2 1 1 1 6 10 8 6 6 5 4 3 3 3 4 4 5 5 4 4 5 5 6 6 7 8 9 10 11 12 13 14 14 14 14 15 15 15 16 16 16 16 15 15 14 14 14 14 15 15 15 15 15 15 15 16 16 17 17 17 17 17 18 18 18 19
1 4 4 3 6 6 3 4 2 3 4 6 4 4 3 3 5 5 5 5 5 5 4 4 3 4 3 1 2 2 5 4 3 3 4 9 10 8 7 6 5 4 3 4 3 3 4 3 4 3 3 4 4 5 6 7 8 9 10 11 12 13 13 14 14 14 15 15 15 15 15 15 16 16 16 15 14 14 14 14 14 14 14 15 16 16 17 18 18 19 18 18 18 18 18 18 18
2 3 1 5 6 6 4 3 2 4 5 5 3 3 3 3 5 5 7 8 8 6 3 3 2 2 2 2 1 1 3 5 6 7 9 10 9 8 8 7 5 5 4 4 3 2 2 2 3 3 3 3 4 5 6 7 8 9 9 10 11 12 12 13 13 14 14 14 14 14 14 14 14 15 15 15 14 14 14 14 14 14 14 15 16 16 17 17 18 18 18 18 17 17 17 17 17
3 3 3 5 4 4 2 1 2 4 5 4 3 2 3 5 6 7 8 7 7 5 3 1 1 0 3 2 1 3 7 6 6 8 10 11 9 9 8 7 6 5 5 4 3 1 1 2 2 2 3 4 4 5 6 7 8 9 9 10 11 11 11 12 12 13 13 13 14 13 14 14 14 14 14 14 14 14 14 14 14 14 14 14 15 15 15 15 16 16 16 16 16 16 16 16 16
6 6 6 6 3 2 1 3 3 4 4 3 4 3 4 7 7 8 9 6 6 4 1 0 0 1 1 2 1 1 7 7 7 8 9 11 10 11 9 7 7 5 5 3 2 1 1 1 2 2 3 4 5 5 6 7 7 8 9 10 10 11 11 11 12 12 12 13 13 13 13 13 13 14 13 14 14 14 14 15 15 15 15 14 14 14 14 14 15 15 16 16 16 15 15 15 16
7 6 5 3 1 1 2 4 4 4 1 0 5 4 6 8 9 11 9 6 4 3 2 2 1 1 1 4 3 2 8 7 8 11 11 11 10 11 10 8 7 5 4 3 2 1 1 1 2 3 4 4 5 6 6 7 8 9 9 10 11 11 11 11 12 12 12 12 12 13 13 13 13 13 14 14 14 14 14 15 15 15 15 15 15 14 15 15 15 16 16 16 16 16 16 15 15
3 2 1 0 2 3 4 5 5 4 3 3 7 5 7 10 11 12 10 7 4 3 4 3 2 2 1 4 4 5 9 8 9 12 11 12 12 11 9 8 7 5 4 3 2 0 1 2 2 3 5 5 6 6 7 8 8 9 10 10 11 11 12 12 12 12 12 12 12 12 12 13 13 13 13 14 14 14 14 15 15 15 15 16 16 16 16 16 16 17 17 17 17 17 17 16 16
1 3 3 1 3 4 5 6 5 4 4 6 9 7 9 12 11 11 8 5 5 5 6 6 4 3 2 4 3 6 11 9 9 11 10 11 12 10 9 8 6 5 4 3 2 1 1 2 3 4 5 6 7 7 8 8 9 9 10 11 11 12 12 12 12 12 12 12 12 12 12 12 13 13 13 13 13 14 14 14 15 15 15 16 16 16 16 17 17 17 17 17 17 18 18 18 17
1 5 4 1 4 4 5 4 5 4 4 6 7 9 11 11 9 8 7 4 5 6 6 7 5 3 2 4 3 5 10 11 10 11 11 11 11 10 8 7 6 5 3 3 2 2 2 3 4 5 6 7 8 8 9 9 9 10 10 11 11 12 12 13 13 13 13 13 13 13 13 13 13 12 13 13 13 13 13 14 14 15 15 15 15 16 16 16 16 17 17 17 17 17 18 18 18
5 5 2 3 4 6 5 4 4 4 4 5 6 8 10 9 6 4 6 5 5 6 6 6 5 4 3 3 4 5 10 11 11 12 12 12 11 10 8 7 6 4 4 3 3 3 3 4 5 6 7 8 8 9 10 10 10 10 11 11 11 12 12 13 12 13 13 13 13 13 13 13 13 12 12 12 12 13 13 14 14 14 15 15 15 15 15 16 16 16 16 17 17 17 18 18 18
5 3 0 3 4 4 4 4 4 3 4 5 6 7 7 7 4 2 3 4 6 5 5 6 3 5 7 4 4 7 9 10 12 12 12 12 10 9 8 7 6 5 4 4 4 4 4 5 6 7 7 8 9 10 10 11 11 11 11 11 11 12 12 12 12 13 13 13 12 13 13 13 13 12 12 12 13 13 13 14 14 14 14 14 15 15 15 15 16 16 16 16 17 17 17 18 18
2 1 0 3 4 4 5 5 4 5 3 3 5 7 6 6 4 4 3 2 6 4 5 7 2 3 5 5 6 9 10 10 11 12 12 11 10 9 8 7 6 6 5 5 5 5 6 6 7 8 9 9 10 11 11 11 11 11 11 11 12 12 12 12 12 13 13 13 12 12 12 12 12 12 12 12 13 13 13 14 14 14 14 14 15 15 15 15 16 16 16 16 16 17 17 17 18
3 2 2 3 4 5 6 5 4 5 3 4 6 8 7 7 5 5 6 4 6 5 5 8 3 3 4 3 4 9 11 11 12 13 12 11 9 9 8 8 7 7 7 7 7 7 8 8 8 9 9 10 11 11 12 12 12 12 11 12 12 12 12 12 12 12 13 12 12 12 12 12 12 12 12 12 13 13 13 13 14 14 14 14 15 15 15 15 16 16 16 16 16 17 17 17 17
5 4 3 3 5 5 5 5 4 4 2 4 9 11 8 8 6 3 5 4 6 6 6 9 7 4 4 2 5 11 12 11 13 13 12 11 10 10 9 8 8 8 8 8 8 8 9 9 10 10 10 11 12 12 12 13 12 12 12 12 12 12 12 13 13 12 12 12 12 12 12 11 12 12 12 12 13 13 13 13 13 14 14 14 14 15 15 15 15 16 16 16 16 17 17 17 17
7 4 2 4 4 4 3 4 5 4 3 5 10 12 10 7 6 4 5 4 4 6 7 10 10 5 2 1 3 9 13 12 14 13 12 12 11 11 10 10 9 9 9 9 9 10 10 10 11 12 12 12 12 12 12 12 12 13 12 12 12 12 12 13 12 12 12 12 12 12 12 12 12 11 11 12 12 13 13 13 13 13 14 14 14 14 14 14 15 15 15 15 16 16 17 17 16
6 1 2 4 4 4 1 4 5 3 4 8 11 12 9 6 7 6 7 6 2 4 8 10 12 9 4 1 0 6 11 12 13 14 13 13 12 12 12 11 11 10 11 10 10 10 11 12 13 13 14 13 13 13 13 13 13 13 13 13 13 12 12 12 12 12 12 12 12 11 11 12 11 10 11 11 12 12 12 12 13 13 13 13 14 14 14 14 14 14 14 14 15 16 16 16 15
4 2 3 4 4 5 1 2 2 3 6 10 14 13 8 6 8 7 8 10 5 4 7 9 12 14 8 2 4 8 10 11 12 14 14 14 14 13 13 12 12 12 12 11 11 12 12 13 14 14 15 14 14 14 14 14 13 13 13 13 13 13 12 12 11 11 11 11 11 11 11 11 11 11 12 12 12 11 12 12 12 12 12 13 13 13 13 14 13 14 14 14 15 14 14 13 13
5 2 3 4 3 3 2 2 3 4 7 10 15 14 9 5 9 8 5 9 12 9 10 10 12 16 14 9 12 12 12 13 13 15 15 15 15 15 14 13 13 13 13 13 13 13 14 14 15 15 16 15 15 15 15 14 14 14 14 13 13 12 12 12 11 10 10 10 10 10 11 11 12 12 12 12 12 12 12 12 12 12 12 13 13 13 14 14 14 14 14 14 14 14 13 13 13
5 2 3 4 2 4 6 6 5 3 10 12 14 13 9 4 8 9 4 7 12 11 12 13 14 17 18 17 19 18 16 16 17 17 17 17 17 16 15 14 14 14 14 14 14 14 15 16 16 16 16 16 15 15 15 15 15 15 14 14 13 13 12 12 11 10 9 9 10 11 11 11 12 12 12 12 12 12 12 12 12 12 12 13 13 13 14 14 14 14 14 14 14 14 15 15 15
6 4 3 3 4 6 8 8 8 7 16 15 12 12 8 4 7 7 5 7 10 12 12 14 18 21 20 20 23 23 20 19 20 19 19 19 18 17 16 16 16 16 16 16 16 16 17 18 17 17 16 16 16 16 16 15 15 15 15 14 14 14 12 11 11 11 10 10 10 11 11 12 12 12 12 11 11 11 10 10 11 11 11 11 12 12 12 13 13 14 14 14 14 15 15 16 16
6 5 3 3 6 6 6 6 8 8 14 13 11 9 6 5 6 7 6 5 8 14 17 17 19 19 19 20 23 25 23 21 21 21 21 21 20 19 18 18 17 17 16 17 18 19 19 18 17 17 17 17 17 17 16 15 15 15 15 15 14 14 14 12 11 10 9 9 10 11 11 11 12 12 12 12 12 11 11 11 11 11 11 12 12 12 13 13 13 13 14 14 14 15 15 15 15
6 6 6 6 4 5 4 5 8 7 10 11 10 7 4 5 7 10 10 7 7 8 12 16 17 15 15 18 21 24 24 23 23 23 22 22 21 21 20 19 18 16 16 18 19 19 20 19 18 19 19 18 17 16 16 16 16 15 15 15 14 14 14 14 12 11 9 8 9 11 11 11 12 12 12 12 12 13 13 13 12 13 13 13 13 13 14 14 14 14 14 14 15 15 15 14 15
4 4 8 10 7 8 5 7 9 7 8 9 6 4 3 4 7 12 17 21 17 9 5 9 13 15 15 15 18 24 25 24 24 24 22 22 22 22 21 21 20 19 18 20 21 21 21 21 21 20 18 18 17 16 16 16 16 15 14 15 14 13 13 13 12 12 11 9 9 10 11 12 12 13 13 13 13 13 13 14 14 14 14 14 15 15 15 15 16 16 16 16 16 15 15 15 15
6 4 7 9 10 9 6 8 8 6 5 4 3 3 4 7 7 8 19 28 26 18 12 11 12 14 15 14 16 21 25 24 23 24 23 22 22 22 22 22 22 21 22 24 24 23 23 22 22 21 19 18 18 16 16 16 16 15 14 14 13 12 13 13 12 11 11 11 10 11 12 13 13 13 14 15 15 14 15 15 15 15 15 15 15 16 16 17 17 17 17 17 17 17 17 16 16
7 4 6 7 9 8 7 8 6 4 2 2 3 6 8 11 9 11 24 31 27 25 21 20 19 19 19 19 19 18 22 23 23 23 23 24 24 23 23 23 23 23 24 25 25 24 22 21 22 22 20 19 18 18 17 15 15 15 14 13 13 13 13 13 13 11 11 11 11 11 12 13 14 14 14 15 15 15 16 16 16 17 17 17 17 17 18 18 18 18 19 19 19 19 18 18 17
5 7 9 8 8 7 7 6 3 2 1 2 3 8 10 11 10 16 29 28 23 26 26 24 22 23 24 23 23 22 22 23 23 23 23 24 25 25 25 24 24 25 25 26 26 24 21 21 21 21 21 20 19 18 17 15 14 15 14 12 13 13 12 12 13 12 11 12 12 12 12 14 15 15 15 16 16 16 16 16 17 17 18 18 18 18 19 19 20 19 19 19 19 19 19 18 17
10 13 12 10 8 6 5 4 3 1 3 3 4 7 11 9 4 11 22 14 10 17 22 24 21 23 26 24 25 25 26 26 25 24 24 25 26 27 26 25 26 26 25 26 25 23 21 21 21 21 21 20 20 18 17 15 14 14 14 13 13 13 13 12 12 12 12 12 13 14 13 14 16 17 17 18 18 18 18 18 18 19 19 20 20 20 20 20 20 20 20 19 19 18 17 17 16
16 15 11 8 6 5 4 4 3 3 3 4 6 10 13 7 4 15 23 14 10 11 14 20 21 24 26 25 24 25 27 28 26 26 26 27 27 27 27 25 26 25 24 24 23 22 22 21 20 21 21 20 20 19 16 15 14 14 13 13 13 13 13 13 12 12 12 12 14 15 15 16 17 18 19 19 20 20 20 19 20 20 20 21 21 21 21 21 20 20 19 19 18 18 16 15 15
13 9 5 4 4 4 4 4 4 3 2 3 5 8 8 7 12 20 19 16 16 14 14 17 21 24 25 25 25 24 26 26 26 28 27 27 27 27 27 25 24 24 23 21 21 21 22 21 20 20 20 20 19 17 16 15 14 14 14 13 13 14 14 13 13 12 13 13 14 16 16 17 19 20 20 21 21 22 21 21 21 21 22 22 21 22 21 21 20 19 18 18 17 17 15 14 13
7 4 1 3 3 2 5 4 3 3 2 3 4 4 4 7 18 21 13 15 17 15 17 18 19 21 22 22 23 23 23 24 25 27 27 27 26 27 26 24 23 23 22 21 21 21 21 21 20 19 19 19 18 16 16 15 13 13 14 14 14 15 14 13 13 14 14 15 15 16 17 18 20 21 22 23 23 23 23 23 22 22 22 22 21 22 21 21 20 18 18 17 16 15 13 11 10
3 1 1 2 1 1 4 3 2 2 1 2 1 2 7 7 13 15 13 15 15 16 19 19 20 20 20 20 21 22 22 22 22 22 23 24 25 26 26 25 23 23 22 21 21 20 19 19 19 18 18 18 17 15 15 15 14 13 14 14 14 15 15 14 14 15 15 16 17 18 18 19 21 22 23 24 25 25 25 24 24 23 22 21 21 21 20 20 19 18 17 16 14 12 10 8 7
2 2 1 1 1 1 3 1 2 1 1 2 2 2 8 10 9 9 14 15 15 17 18 18 19 19 20 21 21 22 21 20 20 19 19 20 21 23 24 25 24 23 23 22 21 19 18 18 18 18 17 17 16 14 14 14 14 14 14 14 15 16 15 15 15 16 17 17 18 19 20 20 21 23 24 25 25 25 25 25 24 24 22 20 20 21 19 19 18 17 16 15 12 9 7 5 4
2 1 1 1 3 1 2 1 2 2 2 4 6 4 7 7 4 6 11 13 16 18 18 18 19 19 20 21 22 21 21 20 20 19 18 18 18 19 21 23 23 23 23 22 21 19 18 18 18 17 16 16 15 14 14 14 14 14 15 15 16 16 16 16 16 17 18 18 19 21 21 22 22 23 24 24 25 25 25 24 23 23 22 20 20 19 18 17 16 15 14 13 11 8 6 4 4
1 1 2 1 1 2 2 1 1 2 1 4 6 6 11 12 11 15 16 16 19 19 20 20 19 20 20 21 22 21 21 22 22 22 20 19 18 17 17 19 20 20 22 22 21 19 18 18 18 16 15 15 14 14 14 14 14 15 15 16 16 17 17 17 17 18 19 20 21 21 23 23 23 23 24 24 24 24 25 24 23 22 21 19 19 18 17 16 14 13 12 11 9 7 5 4 4
4 4 4 3 2 3 2 0 1 2 3 5 5 8 15 16 17 22 23 20 22 23 23 22 20 20 20 21 22 22 22 22 22 22 21 20 20 18 16 16 18 19 21 22 20 19 19 18 18 16 14 14 14 14 14 14 14 15 16 16 17 17 17 17 18 19 20 21 21 22 23 24 23 23 24 24 24 24 24 23 21 21 20 18 18 17 15 14 12 11 9 8 7 5 3 3 5
5 4 3 5 6 3 1 2 2 1 3 6 7 9 14 15 14 17 21 20 22 24 22 20 19 18 19 21 22 22 22 22 21 20 20 20 19 19 18 17 17 18 19 20 19 19 19 18 17 15 13 13 13 14 14 14 14 14 16 17 17 17 17 18 19 20 21 22 22 23 23 24 24 24 24 24 23 23 22 21 20 19 18 17 17 16 15 13 11 9 7 5 5 3 2 3 5
5 5 5 6 6 3 1 2 3 1 2 6 7 9 13 15 14 17 22 16 17 20 19 19 19 18 19 21 22 23 23 24 21 19 19 19 19 19 19 17 17 17 18 19 19 19 18 17 16 14 13 13 14 14 14 14 14 15 16 17 17 17 18 20 20 21 21 22 23 23 24 24 24 25 24 23 23 22 21 21 20 18 17 16 16 15 14 13 11 9 7 4 4 3 3 4 6
4 4 5 5 4 4 2 3 2 2 1 5 7 9 14 14 13 16 15 6 10 14 16 17 18 17 19 20 22 23 23 22 20 18 18 18 20 20 18 18 18 17 17 17 17 17 17 17 16 15 14 14 14 14 14 15 15 16 17 18 19 20 21 21 22 22 22 23 24 24 24 24 25 25 24 23 22 21 21 20 19 18 15 14 14 14 13 12 10 9 7 5 4 4 4 5 6
4 3 4 5 3 4 3 2 3 3 2 5 8 9 14 14 12 12 5 3 4 8 10 12 13 14 16 17 19 20 19 19 17 16 16 16 18 18 18 18 18 17 16 16 16 16 16 16 16 16 15 15 14 15 16 16 17 18 19 21 22 22 23 23 23 23 23 24 24 24 25 25 25 25 24 23 22 21 20 20 19 17 15 14 14 14 12 11 10 8 7 6 5 5 5 6 7
2 3 2 3 4 4 2 0 3 5 2 4 8 9 11 10 7 5 1 3 3 4 6 8 9 11 12 12 14 15 16 17 16 14 13 15 16 17 18 18 18 17 16 16 16 16 16 16 16 16 16 16 15 16 17 17 19 20 21 22 23 24 25 25 25 25 24 24 24 24 25 25 25 24 24 23 21 21 20 20 19 17 15 14 14 14 12 11 10 8 7 7 6 7 7 6 7
2 3 2 2 3 3 3 5 9 9 3 3 7 7 5 4 5 3 2 4 4 2 2 3 4 6 7 11 13 14 14 14 14 13 13 15 16 16 17 17 17 17 16 16 15 15 15 15 16 16 16 16 16 17 17 19 20 21 22 22 23 25 25 26 26 25 25 25 25 24 24 25 24 23 23 22 21 20 20 20 19 18 15 14 14 14 12 11 10 9 8 7 7 7 8 7 6
2 2 2 2 3 4 6 8 9 6 3 4 3 4 4 5 7 4 2 2 3 2 1 1 3 5 5 5 9 13 14 14 12 12 12 14 15 15 16 16 17 16 15 15 15 15 15 16 16 16 17 17 17 18 18 19 21 21 22 22 23 24 25 26 25 24 25 25 25 24 24 23 23 23 22 21 21 20 20 19 19 18 16 15 14 14 13 11 10 10 9 9 8 8 8 8 7
1 2 2 3 3 4 6 6 6 3 3 5 4 4 3 6 7 5 0 4 3 1 1 0 3 4 7 9 9 8 10 12 13 12 12 14 16 15 15 16 16 15 14 14 15 16 16 16 17 17 17 17 18 19 19 19 21 21 22 22 22 23 24 24 24 24 25 25 24 23 23 22 22 22 22 21 21 20 20 19 18 18 17 15 15 14 13 12 11 11 10 9 9 8 7 7 7
2 3 1 3 3 4 5 5 4 3 3 5 4 3 1 5 7 6 1 3 5 6 6 4 6 5 7 9 10 9 9 10 10 11 12 14 16 16 15 15 15 15 15 15 16 16 17 17 18 18 18 19 19 19 19 20 21 21 22 22 22 23 23 23 24 25 25 24 23 22 22 21 21 21 21 21 21 20 20 19 18 19 18 16 15 15 14 13 12 11 11 10 9 8 7 7 8
2 2 1 2 3 3 4 3 5 4 2 3 5 4 1 5 7 6 2 4 7 8 7 7 10 10 8 9 10 9 8 8 8 10 10 11 13 15 15 15 14 15 16 16 17 17 18 19 19 19 19 20 20 20 20 20 21 22 22 22 22 22 22 23 25 26 26 25 24 23 22 21 21 21 21 21 21 20 20 19 19 19 18 17 16 16 15 14 13 12 11 10 9 8 8 8 8
1 3 2 2 2 3 2 2 4 3 1 2 5 5 2 4 8 5 4 5 6 6 5 7 13 14 12 11 12 11 9 8 9 9 9 11 12 13 15 16 16 16 16 16 17 18 19 20 20 21 21 21 21 21 21 21 22 22 23 23 22 22 22 24 26 26 26 25 25 24 23 22 21 21 22 22 21 21 20 19 19 19 19 18 17 17 16 15 14 13 12 11 10 9 8 9 9
4 4 2 1 1 2 2 3 3 2 2 2 2 4 3 2 7 4 3 4 4 5 5 6 13 17 14 11 12 14 14 13 12 10 8 10 12 13 15 16 18 18 17 18 18 19 20 21 21 21 22 22 22 22 22 22 22 23 23 23 23 23 23 25 26 26 26 25 25 24 24 24 23 22 22 22 21 21 21 20 19 20 19 19 18 18 17 16 15 14 13 11 10 10 9 10 10
2 2 2 2 1 2 2 2 0 2 3 2 0 3 1 1 6 5 5 6 5 5 5 6 11 15 14 14 16 19 19 18 17 15 12 10 11 13 15 17 19 21 21 21 21 21 22 22 22 23 23 23 23 23 23 23 24 24 24 24 24 24 25 26 27 26 26 25 25 25 24 25 24 23 23 22 22 22 21 21 20 20 20 19 20 19 18 17 16 15 13 12 11 11 11 11 11
1 2 3 4 3 3 2 3 1 0 4 3 2 2 1 4 8 9 8 6 6 6 6 7 8 12 16 18 20 21 21 20 18 15 14 12 11 12 13 16 19 22 24 24 24 24 24 24 24 25 25 25 25 25 25 25 25 25 25 25 25 26 26 27 27 27 26 26 25 25 25 25 25 24 23 22 22 22 21 21 21 21 21 20 20 20 19 18 16 15 14 13 13 12 12 12 12
0 1 2 3 2 2 2 4 2 1 4 3 2 0 2 4 7 7 4 3 6 8 10 11 12 13 15 17 20 22 22 21 18 16 14 12 11 11 12 13 16 20 23 25 26 26 27 27 27 27 27 27 27 27 27 27 27 27 27 27 27 27 27 27 28 27 27 27 27 27 26 26 26 25 23 22 22 22 22 22 22 21 21 22 22 21 20 19 17 16 15 14 14 14 14 13 13
1 2 3 4 3 2 2 2 1 3 5 4 1 0 2 3 5 4 1 6 8 9 11 13 12 11 11 14 19 23 24 23 20 19 18 16 15 14 13 13 13 15 18 22 25 27 28 29 29 29 29 29 30 30 29 29 29 29 29 29 29 29 28 28 28 28 28 28 28 28 27 27 26 25 24 23 23 22 22 23 23 23 23 24 24 22 21 20 19 18 17 16 16 15 15 15 15
1 1 4 2 3 3 2 1 2 1 3 4 2 2 4 4 7 6 2 7 7 7 10 11 8 6 8 12 18 24 24 22 21 21 21 20 18 17 16 15 15 15 16 17 20 23 26 27 29 30 30 30 31 32 32 32 31 31 31 32 32 31 30 29 29 28 28 29 29 29 28 27 27 26 25 24 24 22 22 24 24 24 25 25 25 24 22 21 20 19 19 18 17 17 17 17 17
1 1 1 2 2 4 3 0 1 2 1 3 3 4 5 3 6 6 2 6 6 6 9 9 5 5 9 12 18 23 23 21 20 20 21 21 19 19 18 18 17 16 17 17 18 19 21 24 26 29 30 30 31 33 34 34 34 34 34 34 34 33 32 32 31 30 29 29 30 29 29 28 28 27 26 25 24 22 23 25 25 26 26 26 26 25 24 23 22 21 20 20 19 19 19 19 18
1 1 2 2 1 2 2 1 2 1 1 3 2 5 6 4 3 4 2 4 5 6 7 7 5 7 10 14 18 22 22 21 19 18 20 21 20 19 19 18 18 18 17 18 18 19 20 22 23 25 28 30 31 33 34 35 36 36 36 36 35 34 34 34 33 31 31 30 31 30 30 29 29 28 27 26 24 23 24 26 26 27 28 28 28 27 26 25 24 23 22 21 21 21 20 20 19
1 2 2 0 2 1 1 1 1 1 2 3 5 7 5 2 4 2 3 3 5 5 5 6 6 7 10 16 20 22 21 19 18 18 19 20 21 21 20 19 18 18 17 18 18 19 20 21 22 23 25 27 29 31 34 36 37 37 37 37 37 36 35 35 34 33 32 32 31 30 30 30 30 30 28 27 26 25 26 27 28 29 30 30 30 28 28 27 26 25 24 23 22 22 21 21 20
1 2 2 1 1 2 2 1 2 2 1 3 5 6 4 5 5 2 4 4 5 5 4 3 4 6 12 18 20 21 20 18 17 17 18 19 20 21 21 21 20 18 17 17 17 18 18 19 21 22 23 24 26 28 31 34 36 38 38 38 38 37 36 36 35 34 34 33 32 31 30 30 31 31 29 28 27 27 28 29 29 31 32 33 32 30 29 28 28 27 25 24 23 22 22 21 20
1 1 1 1 0 1 1 1 1 3 1 2 2 4 6 6 2 4 5 5 5 3 2 3 4 7 14 17 18 19 19 17 16 17 18 19 20 20 21 21 20 20 19 18 16 16 17 18 19 21 22 23 24 25 27 29 32 35 37 38 38 38 37 37 37 36 35 34 33 31 31 31 32 32 31 30 29 29 30 30 31 33 34 34 33 32 31 30 29 28 26 25 24 22 22 21 21
3 4 4 4 4 3 1 2 2 2 2 2 2 3 7 7 1 5 6 5 4 1 2 4 5 8 13 16 17 18 17 15 16 17 18 19 20 21 21 21 21 21 20 20 19 19 18 18 18 19 21 22 23 25 26 27 29 31 34 36 37 38 38 38 38 37 36 35 33 32 32 32 32 33 32 31 31 31 32 32 33 35 36 36 35 33 32 31 30 28 27 25 24 22 22 22 21
Wind_Direction
53 54 103 103 52 18 306 235 86 76 95 80 89 108 63 69 104 105 115 135 108 59 37 49 33 9 359 8 14 68 61 8 155 193 212 158 156 162 173 176 180 173 155 110 80 75 70 69 69 55 52 51 39 24 20 19 19 18 14 14 14 17 17 19 20 20 20 19 19 18 19 19 18 23 24 22 21 21 21 22 21 21 22 24 26 26 26 27 28 29 31 30 30 31 35 37 36
71 103 110 46 349 325 269 210 107 88 98 80 62 78 110 148 113 85 88 91 80 91 68 50 53 38 36 189 223 99 63 58 136 161 142 148 152 156 172 170 167 164 135 104 79 71 75 66 71 55 38 42 33 17 11 13 13 13 10 10 12 13 13 13 15 16 17 17 16 15 16 17 17 18 20 19 20 20 21 21 21 22 22 25 27 28 29 29 29 30 32 32 33 33 34 35 35
106 124 33 331 297 279 257 195 110 112 97 84 75 94 175 148 102 79 77 87 92 103 94 69 72 47 321 260 197 89 98 97 117 135 133 140 154 162 167 164 163 157 124 102 91 77 79 69 65 45 19 19 21 10 5 7 6 5 4 5 8 9 10 10 11 12 13 13 12 13 13 15 16 17 17 16 18 19 22 22 23 25 26 28 28 31 33 33 34 34 34 35 36 35 36 36 37
93 57 16 341 290 259 273 95 81 100 93 97 123 172 185 107 106 103 100 104 108 114 112 104 70 3 287 275 40 82 133 142 134 133 143 148 161 166 161 164 164 147 127 115 115 103 81 64 46 19 355 355 2 4 360 359 357 358 358 359 2 4 6 7 8 10 9 10 10 10 11 12 13 15 16 15 17 17 20 23 25 28 31 33 33 35 37 38 39 39 39 38 39 39 38 38 40
64 43 33 356 312 248 2 67 51 74 93 121 132 164 138 111 125 122 119 121 125 134 125 154 104 117 257 211 317 99 146 161 160 154 167 162 158 161 162 166 158 144 137 133 142 140 89 45 17 354 340 341 346 353 350 349 349 349 351 352 355 357 1 4 4 6 7 7 8 9 9 10 11 12 14 15 16 17 20 22 24 28 33 35 36 37 38 39 41 42 42 42 43 43 42 41 42
24 28 57 24 352 183 50 68 65 78 26 79 122 138 126 125 135 128 130 132 141 172 193 241 254 154 155 181 210 192 164 173 173 172 176 164 158 161 164 164 156 151 148 153 168 158 86 20 346 335 327 328 332 338 339 339 341 342 344 345 348 353 356 359 0 2 4 6 7 9 8 8 9 10 12 13 15 16 18 20 22 25 29 31 33 35 37 38 40 42 42 42 43 43 44 43 43
348 314 89 97 68 57 68 87 82 84 352 39 120 132 127 132 134 134 144 147 160 194 198 213 230 232 223 180 206 209 181 185 181 175 171 162 164 166 165 162 156 158 159 175 189 185 28 349 327 319 315 318 320 324 328 330 334 335 337 340 345 349 352 354 356 359 2 6 8 9 9 8 9 10 11 12 13 15 16 18 20 22 25 27 28 30 33 35 37 39 40 40 41 41 42 42 43
134 250 270 317 66 60 70 82 67 63 27 61 109 127 129 136 142 145 158 163 161 179 196 200 216 242 201 163 196 211 194 198 192 179 171 165 168 168 165 162 160 167 170 183 212 267 312 317 308 308 307 309 311 315 319 323 327 328 331 337 343 347 350 351 353 356 0 5 8 9 9 9 9 10 11 12 13 13 15 16 17 20 22 23 25 27 29 32 34 36 37 38 39 40 40 41 41
304 268 250 92 72 74 72 78 69 65 63 69 94 119 128 139 152 151 155 156 149 162 180 187 210 233 147 168 188 208 207 212 202 182 176 173 171 169 165 166 167 173 181 198 236 268 289 296 297 299 299 302 304 308 312 315 319 322 328 334 341 345 347 348 351 354 359 4 7 9 10 9 9 10 10 12 13 13 14 15 16 18 20 21 23 26 28 30 32 35 36 37 38 39 39 40 39
258 255 228 87 80 88 89 88 82 75 88 97 105 120 129 143 158 156 150 143 148 154 163 178 213 250 272 209 182 218 221 211 200 187 183 181 174 172 168 171 177 182 195 209 241 264 278 286 290 292 292 296 298 302 306 309 314 318 325 332 338 342 343 345 349 353 357 2 6 8 9 10 10 10 11 12 13 14 14 14 15 16 18 19 21 24 26 28 30 33 35 36 37 38 39 39 39
253 237 63 89 92 91 97 92 97 95 96 115 126 131 136 147 155 170 151 122 145 148 158 179 218 246 264 252 196 228 230 210 202 193 187 185 178 176 175 177 185 193 208 221 239 260 272 276 280 286 288 290 294 298 302 305 310 315 322 329 334 337 339 342 347 352 357 360 5 8 9 10 11 11 12 13 14 15 15 15 15 15 17 17 19 22 24 26 28 31 33 34 35 36 37 38 38
305 290 333 85 82 83 102 102 114 108 118 147 141 153 154 159 163 174 186 134 154 171 185 194 223 206 231 249 220 230 237 225 208 199 195 190 183 181 183 187 194 203 216 229 239 254 265 271 272 278 283 286 290 293 298 302 307 313 319 325 330 333 336 340 346 351 355 358 2 6 9 11 11 12 13 14 16 17 17 16 16 16 17 18 19 21 22 24 26 29 32 32 33 35 36 36 36
2 358 20 75 78 90 107 103 116 115 153 183 153 166 164 171 186 176 185 168 166 187 196 201 211 193 228 250 208 229 240 231 213 207 201 193 190 191 194 196 201 212 220 232 241 250 259 268 271 273 278 282 287 289 294 299 304 311 317 322 327 330 334 338 344 349 352 356 360 3 8 10 12 12 12 15 17 18 19 19 19 18 19 21 21 22 23 23 24 27 30 31 32 33 33 33 33
41 13 44 95 87 91 108 103 141 149 151 144 138 158 167 180 197 184 182 175 180 189 178 189 190 191 250 243 205 235 241 228 217 214 206 199 201 200 203 208 210 218 226 233 241 248 255 264 270 274 274 276 283 287 291 297 303 309 314 319 323 327 331 335 341 346 350 353 357 1 4 8 12 11 11 15 16 19 21 21 21 21 22 24 25 26 26 26 26 28 30 31 31 32 31 31 29
74 21 62 94 88 96 127 145 170 151 126 136 139 158 172 194 198 182 203 198 185 195 193 197 197 190 226 256 225 235 238 226 216 217 212 208 208 207 211 215 219 223 231 236 241 249 254 259 266 273 276 276 279 283 287 293 299 306 311 315 319 323 327 332 336 341 345 349 353 357 0 7 9 6 11 14 16 19 20 22 23 23 23 25 27 29 30 30 29 30 32 31 31 31 30 29 26
98 6 83 86 102 114 172 185 184 152 133 147 149 162 175 205 199 185 218 219 172 205 222 218 213 208 185 347 257 199 220 221 215 218 217 217 218 216 217 219 224 228 233 239 243 248 253 259 263 268 275 278 280 284 288 292 297 302 307 312 316 319 323 327 331 336 340 344 349 353 356 1 2 3 10 13 16 18 18 21 22 23 24 25 27 28 30 31 30 31 32 32 32 30 29 27 22
79 351 98 94 110 116 228 205 179 156 128 140 154 170 177 187 192 205 228 222 224 232 236 234 231 225 203 255 249 198 213 227 224 224 222 225 226 225 225 225 229 232 236 240 245 249 251 257 262 267 271 276 280 284 288 293 297 299 303 308 313 315 319 322 326 331 335 340 342 347 352 353 354 0 7 10 11 13 15 18 18 22 22 23 25 25 27 27 26 28 28 28 29 27 26 25 22
20 333 106 84 91 92 337 45 94 129 128 147 162 177 191 171 179 207 232 222 229 239 245 239 241 236 219 236 254 230 225 238 240 235 231 231 233 234 233 233 235 238 241 241 243 249 253 256 260 264 270 275 278 281 285 289 293 296 299 304 308 310 313 316 320 325 327 332 335 341 348 348 351 358 1 2 4 6 8 9 11 16 17 19 20 20 22 21 20 22 20 19 20 18 19 20 19
29 340 89 51 47 54 22 49 54 113 138 152 162 180 203 166 169 195 214 220 219 228 242 233 234 241 229 229 244 243 233 238 244 241 239 237 239 241 241 242 242 242 245 247 248 249 254 259 261 263 268 273 276 279 283 286 289 292 295 300 303 305 309 311 314 319 322 326 334 340 344 346 349 351 352 353 358 360 359 359 3 8 9 11 13 16 16 14 16 17 15 14 14 13 14 15 13
28 15 75 80 108 73 40 52 47 101 138 146 159 180 202 167 163 185 210 235 225 223 230 220 224 234 234 231 238 245 240 237 241 240 240 241 243 245 246 247 248 249 249 252 254 252 253 257 263 266 268 271 275 278 282 284 285 288 293 298 300 303 305 306 309 314 320 326 332 337 339 342 343 343 344 346 349 352 352 353 357 359 1 5 8 10 10 11 14 13 12 12 12 12 11 10 8
33 26 71 119 136 94 41 64 58 91 136 142 148 166 211 202 182 197 212 245 245 237 231 222 227 234 238 237 237 244 244 239 239 240 240 241 243 244 246 249 253 257 258 259 259 257 258 260 264 268 269 271 274 278 283 284 283 286 291 295 299 302 304 305 306 307 315 323 327 332 334 336 336 337 339 339 342 345 349 351 352 354 358 1 3 4 5 8 9 9 10 9 9 9 8 6 4
64 41 57 57 104 107 66 111 90 85 125 134 140 156 204 196 208 220 218 230 226 229 232 225 230 239 243 240 236 240 244 242 240 241 241 242 244 245 246 247 248 249 253 259 260 259 264 268 268 268 272 273 274 278 281 283 283 286 288 290 294 297 300 304 306 307 313 320 322 326 329 331 331 331 333 335 338 341 344 346 347 350 353 353 356 358 359 360 0 2 3 3 3 2 2 1 359
98 63 53 41 68 103 104 125 108 93 119 131 149 176 191 198 241 236 227 236 233 215 207 211 215 223 233 236 232 235 240 242 241 243 245 244 246 246 247 246 244 239 238 246 252 256 263 269 271 270 272 274 275 275 276 280 282 284 285 285 290 291 292 296 300 303 310 317 321 322 325 327 328 329 332 336 337 338 339 341 343 345 346 346 347 349 352 352 352 353 354 355 356 355 355 355 354
97 104 64 56 77 91 113 133 118 100 118 147 178 213 227 226 255 253 237 244 245 238 229 223 222 222 224 221 223 233 241 244 245 247 249 250 250 250 251 248 246 242 238 244 250 254 259 265 270 273 272 271 274 274 273 276 280 281 280 281 285 286 286 291 293 295 303 313 319 321 322 323 325 328 331 333 335 335 336 337 338 339 340 342 342 342 344 345 345 346 347 347 347 348 348 348 348
60 101 98 84 83 86 115 130 126 104 121 230 226 247 254 242 256 270 255 253 253 251 246 242 243 243 237 225 218 225 235 241 245 247 249 252 254 253 251 248 245 243 243 248 253 257 259 261 265 271 272 270 271 274 274 275 277 279 279 279 279 278 280 285 287 290 298 307 313 316 317 318 321 323 325 326 328 330 331 332 332 333 335 336 337 338 337 339 340 340 340 341 341 342 341 341 341
64 109 113 104 100 107 121 130 148 129 225 270 257 258 261 254 261 270 264 263 260 255 253 249 245 245 245 236 227 224 227 233 238 243 246 250 253 253 252 249 246 246 247 250 255 261 262 261 262 266 270 271 271 273 277 279 277 277 279 277 274 274 276 274 278 286 293 299 306 310 312 313 315 317 319 320 321 323 324 325 326 327 329 331 333 334 334 334 335 335 335 336 336 335 335 334 335
115 114 108 110 117 126 129 139 174 205 250 241 256 265 265 255 240 266 266 269 262 250 245 244 239 238 243 242 237 234 231 234 237 241 244 246 249 252 252 251 250 250 250 252 257 261 261 259 260 262 266 270 273 275 280 282 278 277 278 275 270 272 274 272 272 279 288 295 300 306 309 309 309 312 314 315 317 318 319 320 320 322 324 326 329 331 331 330 331 332 332 332 331 330 331 332 333
127 122 107 111 129 138 151 153 177 238 255 235 260 268 263 243 200 257 262 257 249 242 233 232 229 231 238 243 244 242 241 242 241 241 243 246 249 252 253 253 254 256 255 256 258 260 260 258 256 259 263 266 270 275 279 279 278 277 275 272 271 270 270 271 272 276 284 290 294 300 305 305 305 308 309 310 312 313 315 317 317 318 320 322 325 326 327 328 328 328 328 329 329 329 331 333 335
143 149 108 126 157 154 187 183 177 222 246 274 296 282 260 197 218 258 266 253 246 240 234 230 229 232 237 243 246 247 248 247 244 244 247 249 252 253 256 257 257 258 258 258 256 255 257 257 256 257 261 264 268 274 276 276 275 274 273 272 270 268 268 270 273 278 283 287 290 295 300 301 302 304 306 306 308 310 312 314 314 315 316 319 323 323 324 325 324 327 328 328 330 329 330 333 339
170 214 83 152 192 181 185 171 187 227 230 287 334 313 286 202 228 256 263 242 235 230 233 233 233 237 240 244 245 247 249 248 246 249 251 252 252 254 257 259 258 256 257 256 253 251 253 256 258 259 260 264 269 271 271 275 275 272 271 270 268 268 269 271 274 278 282 286 289 293 296 298 300 301 303 305 306 308 309 311 313 313 313 318 321 320 322 323 322 327 328 328 330 328 328 335 343
182 63 51 187 271 192 174 160 197 215 209 270 23 259 275 268 252 251 238 230 224 224 231 231 232 235 240 244 244 245 247 249 253 254 253 253 253 254 256 258 257 256 256 255 255 254 253 255 257 260 261 264 269 269 269 274 275 272 271 268 267 268 270 272 274 277 281 284 287 291 294 295 297 299 301 303 306 307 308 309 310 311 312 317 319 318 320 321 322 327 328 327 330 328 327 339 349
155 67 344 261 325 195 169 171 206 264 325 201 171 258 270 288 287 231 216 224 221 227 234 232 232 232 235 240 242 244 246 250 255 256 254 253 253 252 252 253 252 253 255 255 257 258 256 255 257 258 259 263 268 270 269 272 274 274 273 271 269 270 272 273 276 278 280 282 285 288 291 293 294 297 299 302 305 306 306 307 308 308 311 316 317 316 318 318 320 325 327 325 327 329 332 347 5
164 208 326 45 328 293 168 246 237 280 330 205 206 260 277 285 288 205 210 227 225 228 233 232 232 233 233 235 237 242 246 247 250 253 253 253 254 253 251 251 250 250 252 254 255 256 255 255 258 258 257 262 268 271 270 271 274 276 276 274 273 274 275 275 276 277 279 282 285 287 290 292 294 296 299 301 303 304 304 305 305 305 307 313 312 312 314 315 319 324 325 322 322 331 339 357 21
26 324 323 69 316 272 238 316 248 224 245 232 217 241 263 266 271 263 254 244 232 229 234 235 235 235 236 233 232 238 242 245 249 255 258 257 259 259 255 253 252 249 249 252 253 253 253 253 258 259 259 262 266 270 271 272 273 274 275 276 275 276 276 277 275 276 280 283 285 287 288 291 294 296 297 299 301 301 302 303 303 301 303 307 306 306 308 310 316 321 320 316 314 324 336 351 8
348 351 345 345 314 276 281 15 222 225 214 242 247 256 266 270 272 271 267 250 234 233 239 241 240 239 239 233 231 235 240 245 251 258 263 262 259 259 259 256 252 247 245 248 250 251 251 250 255 259 259 261 262 265 267 268 269 269 272 274 274 276 277 278 277 277 280 282 284 285 287 291 294 295 295 297 298 299 299 300 299 297 298 301 300 301 303 305 311 313 308 301 297 310 323 328 339
317 322 319 311 305 296 345 113 172 246 259 254 253 256 270 283 283 279 281 261 232 235 242 240 242 242 239 235 233 235 237 243 250 257 261 262 259 255 257 258 255 249 247 248 247 248 249 249 252 254 253 254 255 258 262 265 268 269 270 271 273 276 278 278 277 278 280 282 283 284 287 291 292 292 293 294 296 296 296 294 292 291 292 293 294 295 299 301 305 304 296 283 278 285 289 302 318
295 314 299 287 299 298 70 110 169 157 307 269 261 269 278 285 285 285 288 266 221 226 234 235 240 240 239 238 237 237 239 245 251 252 250 251 255 255 255 256 255 252 249 249 247 245 247 248 249 249 247 245 247 253 260 266 269 271 271 273 275 277 277 277 277 278 280 282 283 284 287 289 289 291 292 293 294 293 291 288 286 285 285 285 287 289 292 296 298 295 288 273 258 265 276 290 308
308 315 304 307 318 305 3 87 182 138 67 279 292 302 288 284 284 285 287 251 202 218 225 234 239 240 242 240 240 242 244 248 250 246 241 238 245 252 254 254 256 255 252 252 251 248 247 246 245 244 244 243 247 254 261 266 270 272 275 276 277 276 275 275 277 279 281 281 282 284 286 287 287 289 291 291 291 289 286 283 281 281 279 278 279 282 285 287 286 281 275 265 254 263 277 290 305
312 303 305 319 340 324 336 96 163 157 149 284 311 310 292 287 282 281 277 150 196 231 233 244 246 245 244 241 244 244 240 240 241 243 243 239 242 249 251 252 256 258 256 252 250 248 245 243 242 243 245 248 253 258 262 267 271 272 273 273 274 275 275 277 279 280 281 281 282 284 285 286 287 288 289 290 288 285 281 278 278 277 275 272 272 274 276 277 274 266 259 259 266 278 291 301 310
309 342 340 316 1 9 297 318 307 276 253 293 300 292 286 288 282 277 191 174 240 260 259 264 260 255 246 238 241 237 230 230 237 245 247 244 243 245 248 251 255 257 256 251 246 245 245 244 246 247 251 255 258 261 263 267 268 267 267 269 271 273 275 277 279 281 282 284 284 285 286 286 287 287 287 286 284 281 278 275 275 274 271 267 266 268 268 265 260 253 249 258 274 287 298 307 311
39 25 43 305 348 356 269 307 311 296 303 298 292 298 288 304 332 322 217 235 259 261 289 311 307 288 254 235 231 227 226 227 237 247 248 252 249 246 249 252 254 255 254 251 245 245 247 248 251 253 257 259 261 262 263 263 263 265 265 266 268 269 271 273 276 280 283 285 285 285 285 285 285 285 284 283 280 277 275 273 272 270 268 263 261 264 262 254 246 241 246 258 272 281 292 303 309
13 10 42 347 328 311 291 311 318 321 332 295 337 7 309 329 345 310 220 292 289 196 221 314 20 9 347 286 256 239 236 235 238 243 244 255 258 252 250 251 254 255 253 252 249 248 248 249 253 255 258 260 262 262 262 262 262 263 265 265 266 267 269 272 276 279 281 281 283 284 284 284 284 283 281 280 277 275 273 271 269 267 265 261 257 258 256 245 236 236 245 256 265 272 282 295 303
333 267 325 331 306 295 304 321 326 334 305 299 21 57 281 319 325 284 23 353 326 101 22 37 94 22 6 359 336 301 272 256 247 243 240 249 259 259 254 253 258 258 255 254 252 252 251 252 255 257 259 260 261 262 262 262 263 264 265 266 267 268 269 273 276 277 277 280 282 283 283 283 281 280 280 279 276 273 271 267 265 263 262 259 255 253 247 236 232 237 246 252 259 266 275 287 295
247 244 287 318 307 300 315 328 293 275 301 319 4 73 224 302 294 269 271 5 1 23 4 17 74 45 18 16 0 346 325 299 273 260 250 250 259 263 261 260 262 262 260 256 253 255 256 257 259 259 261 261 261 263 263 264 264 265 266 267 267 268 270 273 275 276 279 283 284 283 283 282 280 279 278 277 274 271 268 264 261 260 260 257 252 247 238 230 232 239 245 250 255 262 272 283 292
215 264 268 304 326 307 308 312 271 278 357 337 337 33 82 269 284 293 338 37 8 0 354 7 40 44 36 32 19 8 348 322 302 284 270 265 266 266 263 262 263 262 259 258 257 256 257 258 260 261 261 262 263 264 265 265 266 266 266 267 267 269 270 271 274 277 281 283 283 283 282 281 279 278 277 276 273 269 266 262 258 257 257 254 248 240 232 230 235 240 244 248 253 261 269 279 287
271 314 278 251 276 269 266 273 274 302 11 287 317 360 34 281 289 310 19 31 349 339 351 9 28 33 33 31 18 12 9 346 328 308 287 282 281 274 266 261 262 262 259 258 258 257 258 259 261 262 263 263 265 266 266 267 266 266 267 267 268 269 269 270 273 275 278 280 280 280 280 280 279 276 275 275 272 267 264 261 257 255 254 250 243 233 229 232 236 239 243 246 253 261 269 276 282
327 327 291 225 219 254 243 236 258 345 312 253 303 349 48 327 285 286 17 1 359 7 350 355 16 20 25 27 16 19 26 18 9 358 327 302 292 283 273 266 263 263 261 258 257 258 261 262 263 263 263 264 266 267 268 268 268 268 268 268 269 269 270 270 272 274 275 276 277 278 278 278 277 275 274 273 271 266 262 261 257 254 252 246 237 230 228 233 236 238 242 247 254 261 266 272 276
357 333 322 22 11 341 8 295 279 50 291 248 88 339 43 204 266 281 321 339 33 46 10 0 12 21 35 44 38 37 36 32 31 26 11 345 317 298 284 274 267 265 264 262 260 260 262 263 265 265 266 267 269 269 270 269 269 269 270 270 270 270 271 271 273 275 275 275 276 276 275 275 275 275 274 272 270 267 263 260 257 253 250 242 233 229 229 233 236 239 243 248 254 258 262 267 271
13 341 12 42 9 352 5 311 306 123 272 232 143 340 287 223 250 265 290 333 41 57 49 47 45 52 56 52 43 35 28 26 27 22 15 3 341 318 296 282 273 268 267 266 265 265 264 265 266 267 268 269 270 271 271 270 270 270 270 271 271 272 272 272 275 275 275 275 274 274 273 274 274 275 274 273 271 267 263 261 257 253 249 239 230 229 231 235 238 241 244 248 252 255 258 263 266
23 1 58 90 50 17 309 291 316 298 282 254 171 150 295 280 264 245 264 19 67 68 71 81 83 76 62 49 37 26 19 16 14 10 4 352 340 329 313 297 283 273 269 268 269 268 268 267 267 269 270 270 270 271 271 272 273 273 272 272 272 272 272 274 276 276 276 275 274 273 273 273 274 275 275 274 270 266 262 259 256 251 244 234 229 230 233 237 239 242 245 248 250 253 256 259 262
219 175 111 127 136 132 225 261 285 276 296 303 304 158 205 266 270 239 123 86 88 84 94 99 88 71 56 41 24 16 12 7 2 1 356 348 339 330 319 310 299 287 277 272 270 270 270 270 270 271 271 271 272 272 272 273 274 274 273 272 271 271 272 274 276 277 276 275 274 274 273 274 274 274 274 273 270 265 260 257 254 248 240 232 230 232 236 238 241 243 245 246 249 251 254 257 260
267 111 89 132 167 149 162 190 212 225 331 310 282 243 212 227 272 281 110 117 116 106 111 109 91 53 36 21 8 6 7 3 358 354 353 350 342 333 324 316 307 299 292 283 278 274 272 271 271 271 272 272 272 272 272 272 272 273 272 271 271 270 271 273 275 277 277 275 275 274 274 274 274 273 272 271 270 266 260 256 252 246 239 233 232 235 237 239 242 243 244 246 248 250 253 255 259
320 72 107 221 162 120 119 333 301 102 58 282 262 279 292 322 308 306 91 136 148 130 122 116 96 29 14 6 1 359 358 1 0 355 353 352 346 338 330 321 313 306 298 293 289 284 278 275 271 270 270 269 270 271 272 271 270 271 271 272 271 271 272 273 275 276 276 275 274 274 274 273 273 273 272 271 270 265 259 255 251 245 238 233 234 236 237 239 241 242 244 246 248 250 251 255 258
103 143 233 246 95 91 109 59 334 30 253 273 266 272 297 351 313 305 43 131 140 117 111 97 58 15 4 359 356 353 352 358 2 1 360 358 357 352 342 332 323 314 306 299 295 291 288 285 281 277 273 269 268 268 269 270 270 270 271 272 272 272 272 272 273 274 274 274 274 274 274 273 273 273 273 271 269 263 257 254 250 244 237 234 235 236 238 239 241 242 244 245 248 250 251 255 258
159 207 259 222 103 113 117 117 271 290 270 279 298 291 280 230 228 265 39 102 115 84 75 64 34 10 2 356 350 347 350 357 3 7 5 4 5 3 359 353 342 330 320 311 304 299 296 293 292 290 287 282 277 273 270 269 269 269 269 271 272 271 271 271 272 273 273 274 275 276 275 274 273 272 272 270 267 262 257 254 250 243 237 235 236 237 238 239 241 243 245 246 248 249 251 255 259
310 313 336 28 142 170 169 161 170 166 240 274 314 321 288 233 210 133 65 81 99 71 45 28 8 4 1 354 347 343 348 357 4 5 3 3 4 5 6 5 0 354 342 328 317 309 304 301 298 295 294 293 290 286 281 277 275 273 272 272 272 272 272 272 272 272 273 275 277 277 275 273 272 271 271 269 265 261 257 254 250 243 238 236 236 237 239 240 241 243 245 246 248 249 252 256 259
122 133 146 189 177 121 162 267 170 142 166 252 288 302 275 250 203 100 81 94 111 92 14 319 337 1 356 350 345 343 346 356 2 1 359 359 0 1 2 2 2 2 358 352 342 329 320 311 305 301 297 295 294 292 289 286 282 279 276 275 274 274 273 272 272 272 273 275 276 277 275 273 271 271 269 267 264 261 257 254 250 243 238 236 237 238 240 240 241 244 244 245 248 250 253 257 261
153 168 176 178 160 116 95 284 288 113 141 204 203 259 269 262 214 95 101 118 122 117 283 295 328 349 349 345 342 342 347 354 358 359 359 0 1 0 360 358 357 357 356 357 355 351 346 337 327 318 309 304 300 296 293 290 287 283 280 276 274 273 272 271 271 272 273 274 276 276 275 273 272 271 269 267 264 261 257 254 248 242 237 236 238 239 240 241 242 244 244 246 249 251 255 259 263